Weather History for New Bedford, MA

Change the Weather History Date:

Friday, December 14, 2012

  Actual Average Record
Temperature  
Mean Temperature 36 °F -  
Max Temperature 48 °F 43 °F 59 °F (2001)
Min Temperature 24 °F 29 °F 6 °F (1976)
Degree Days  
Heating Degree Days 29    
Moisture  
Dew Point 26 °F    
Average Humidity 68    
Maximum Humidity 92    
Minimum Humidity 46    
Precipitation  
Precipitation 0.00 in - - ()
Sea Level Pressure  
Sea Level Pressure 30.18 in    
Wind  
Wind Speed 3 mph (West)    
Max Wind Speed 14 mph    
Max Gust Speed 23 mph    
Visibility 8 miles    
Events      
Averages and records for this station are not official NWS values.
T = Trace of Precipitation, MM = Missing Value Source: NWS Daily Summary

Daily Weather History Graph

Daily Weather History Graph

Search for Another Location

Airport:

Trip Planner

Search our weather history database for the weather conditions in past years. The results will help you decide how hot, cold, wet, or windy it might be!

Date:

Astronomy

Dec. 14, 2012 Rise Set
Actual Time 7:03 AM EST 4:14 PM EST
Civil Twilight 6:31 AM EST 4:45 PM EST
Nautical Twilight 5:56 AM EST 5:20 PM EST
Astronomical Twilight 5:23 AM EST 5:54 PM EST
Moon 8:04 AM EST (12/14) 6:03 PM EST (12/14)
Length of Visible Light 10h 13m
Length of Day
9h 10m
Waxing Crescent, 3% of the Moon is Illuminated
Dec 14
Waxing Crescent
Dec 20
First Quarter
Dec 28
Full
Jan 4
Last Quarter
Jan 11
New

Hourly Weather History & Observations

Time (EST) Temp. Windchill Dew Point Humidity Pressure Visibility Wind Dir Wind Speed Gust Speed Precip Events Conditions
12:53 AM 24.8 °F - 21.2 °F 86% 30.28 in 7.0 mi Calm Calm - N/A   Clear
1:53 AM 25.0 °F - 21.9 °F 88% 30.28 in 7.0 mi Calm Calm - N/A   Clear
2:53 AM 27.0 °F - 24.1 °F 89% 30.27 in 7.0 mi Calm Calm - N/A   Clear
3:53 AM 26.1 °F - 24.1 °F 92% 30.26 in 6.0 mi Calm Calm - N/A   Clear
4:53 AM 25.0 °F 20.7 °F 23.0 °F 92% 30.25 in 5.0 mi SW 3.5 mph - N/A   Clear
5:53 AM 24.1 °F - 21.9 °F 91% 30.25 in 5.0 mi Calm Calm - N/A   Clear
6:53 AM 25.0 °F - 21.9 °F 88% 30.24 in 6.0 mi Calm Calm - N/A   Clear
7:53 AM 27.0 °F - 25.0 °F 92% 30.23 in 5.0 mi Calm Calm - N/A   Clear
8:53 AM 36.0 °F 33.3 °F 30.9 °F 82% 30.23 in 7.0 mi SW 3.5 mph - N/A   Clear
9:53 AM 43.0 °F 37.2 °F 28.9 °F 58% 30.22 in 10.0 mi WSW 10.4 mph - N/A   Clear
10:53 AM 45.0 °F 38.5 °F 27.0 °F 49% 30.18 in 10.0 mi WSW 13.8 mph 23.0 mph N/A   Clear
11:53 AM 46.0 °F 41.0 °F 27.0 °F 47% 30.13 in 10.0 mi WSW 10.4 mph - N/A   Clear
12:53 PM 46.9 °F - 28.0 °F 48% 30.10 in 10.0 mi WSW 9.2 mph - N/A   Clear
1:53 PM 48.0 °F - 28.0 °F 46% 30.08 in 10.0 mi WSW 6.9 mph 16.1 mph N/A   Clear
2:53 PM 48.0 °F - 28.9 °F 48% 30.07 in 10.0 mi WSW 10.4 mph - N/A   Clear
3:53 PM 45.0 °F 40.6 °F 28.0 °F 52% 30.09 in 10.0 mi West 8.1 mph - N/A   Clear
4:53 PM 39.9 °F 37.8 °F 28.0 °F 63% 30.11 in 10.0 mi West 3.5 mph - N/A   Clear
5:53 PM 39.0 °F 34.8 °F 25.0 °F 57% 30.12 in 10.0 mi NW 5.8 mph - N/A   Clear
6:53 PM 41.0 °F 37.1 °F 21.9 °F 47% 30.15 in 10.0 mi WNW 5.8 mph - N/A   Clear
7:53 PM 37.9 °F 32.7 °F 24.1 °F 57% 30.15 in 10.0 mi WNW 6.9 mph - N/A   Clear
8:53 PM 37.9 °F 34.4 °F 25.0 °F 60% 30.17 in 10.0 mi NW 4.6 mph - N/A   Clear
9:53 PM 35.1 °F 32.2 °F 26.1 °F 70% 30.17 in 10.0 mi WNW 3.5 mph - N/A   Clear
10:53 PM 35.1 °F 32.2 °F 26.1 °F 70% 30.17 in 10.0 mi WNW 3.5 mph - N/A   Clear
11:53 PM 35.1 °F 31.0 °F 27.0 °F 72% 30.17 in 10.0 mi WNW 4.6 mph - N/A   Clear